CAPE
0 0 0 0 0 0 0 0 0 0 0 0 0 0 7 33 54 86 0 66 1141 428 816 1463 1604 1406 1903 2273 2415 2458 2376 2323 2289 2251 2002 1664 1391 1042 684 319 32 0 0 0 0 0 0 0 0
0 0 0 0 0 0 0 0 0 0 1 1 0 0 5 193 74 1 1 61 1313 419 652 615 1728 1446 1551 1999 2204 2208 2256 2304 2276 2076 1806 1477 1247 863 307 63 25 0 0 0 0 0 0 0 0
0 0 0 0 0 0 0 0 0 0 45 0 0 0 50 208 100 67 132 771 1375 615 299 804 1840 1575 1459 1490 1816 1875 1964 2065 2112 1913 1649 1354 980 691 341 90 52 2 0 0 0 0 0 0 0
0 0 0 0 0 0 0 0 0 14 94 0 31 2 9 144 35 168 148 1037 1182 827 276 1629 1814 1720 1572 1373 1330 1509 1663 1756 1775 1704 1485 1191 824 680 370 136 53 36 0 0 0 0 0 0 18
0 0 0 0 0 0 0 0 0 16 37 1 7 0 23 117 160 123 138 571 732 825 445 1319 1702 1794 1755 1616 1318 1187 1264 1295 1418 1413 1257 1012 807 635 290 119 87 75 54 33 67 70 91 85 84
0 0 0 0 0 0 0 0 0 2 9 27 10 20 15 81 164 183 163 332 367 628 812 1468 1540 1686 1678 1642 1408 1202 1069 1061 1099 1088 1060 915 791 463 241 135 116 111 114 149 174 169 240 254 250
0 0 0 0 0 0 0 0 0 0 0 28 75 43 136 8 109 43 134 182 168 489 1333 1451 1058 1352 1667 1587 1463 1284 1185 1110 1064 1022 954 860 688 396 260 197 176 182 215 306 409 469 603 773 824
0 0 0 0 0 0 0 0 0 0 0 0 11 61 13 162 189 0 5 26 79 315 1016 1761 1348 696 665 807 1473 1271 1173 1079 964 927 815 639 513 447 385 266 270 310 408 587 707 787 918 1090 1082
0 0 0 0 0 0 0 0 0 0 0 0 27 115 5 117 60 4 1 9 84 98 341 1958 2018 1049 370 228 730 1324 1120 1049 864 782 714 480 128 99 72 98 118 431 591 803 959 1118 1188 1186 1300
0 0 0 0 0 0 0 0 0 0 0 0 9 33 26 58 66 30 30 33 137 269 351 1020 2291 1056 413 123 351 805 737 675 556 340 249 250 48 20 15 65 184 431 815 991 1081 1220 1282 1216 743
0 0 0 0 0 0 0 0 0 0 0 0 1 84 9 130 249 61 6 101 160 304 250 783 2296 1758 933 460 772 961 362 326 334 225 130 173 71 29 57 7 53 390 703 503 817 953 987 746 666
0 0 0 0 0 0 0 0 0 0 0 0 1 51 88 43 148 174 235 152 108 36 9 998 2369 2860 2519 1434 1308 1378 910 512 302 201 160 137 129 78 72 44 115 144 214 225 277 456 627 715 918
0 0 0 0 0 0 0 0 0 0 0 0 0 3 143 76 105 171 199 131 164 166 353 556 2747 3179 3415 3703 2540 1524 1341 1144 662 508 362 186 341 112 106 206 176 142 259 273 295 554 786 1091 1157
0 0 0 0 0 0 0 0 0 0 0 0 0 0 23 7 1 85 158 241 379 347 384 574 940 3703 3697 3111 3095 3569 2224 1613 1678 1007 820 473 340 369 288 221 326 581 321 400 378 702 845 1339 1566
0 0 0 0 0 0 0 0 0 0 0 0 0 0 0 53 77 0 49 177 324 377 693 1132 1272 4218 3728 3362 3294 2842 3096 1957 2205 1629 1798 993 905 624 333 525 410 268 741 688 464 657 1432 1749 1522
0 0 0 0 0 0 0 0 0 0 0 2 1 4 14 10 2 69 142 324 633 497 402 769 27 1344 3638 3571 3440 3169 2447 2353 2237 1842 2130 2374 1299 851 1225 695 767 814 523 685 1102 778 995 1154 1191
0 0 0 0 0 0 0 0 0 0 0 0 2 19 14 55 93 118 172 243 639 888 1295 1925 1715 1448 3699 3945 3413 3253 2799 2709 1990 1873 1860 2539 2243 1468 1087 1330 1183 1110 1010 977 645 991 1200 1080 1581
0 0 0 0 0 0 0 0 0 0 0 0 0 0 12 48 17 179 259 268 405 1122 1295 1834 2042 2092 2252 2985 2968 1904 1722 1481 1586 1446 1470 2545 2398 2163 1732 1566 1382 2092 903 870 1121 852 861 1108 1385
0 0 0 0 0 0 0 0 0 0 0 0 0 0 0 0 0 3 194 129 785 1088 1406 2177 1931 1765 1826 1830 1365 993 830 662 1009 1710 2457 3015 2851 2317 2169 1646 2052 1291 1467 974 1252 1183 1096 1268 1422
0 0 0 0 0 0 0 0 0 0 0 0 0 0 0 0 8 56 21 69 879 831 1169 1828 2216 2465 2096 1257 1078 1081 1197 654 675 1713 2631 2982 3018 2342 2227 2109 1605 1813 1520 1377 1618 1112 941 1426 1406
0 0 0 0 0 0 0 0 0 0 0 0 0 1 0 0 0 0 41 409 734 584 1191 1216 1161 1344 1466 1199 1350 1885 1767 2006 2243 2689 2899 2784 2676 2577 2281 2118 1853 2010 1435 1306 1403 1521 1063 957 1307
0 0 0 0 0 0 0 0 0 0 0 0 0 0 0 0 0 0 0 0 258 336 293 1208 1451 967 1099 1831 1359 1540 961 1083 1701 3097 2529 2536 2413 2420 2212 2146 1825 2391 1432 1591 1422 1309 1183 1179 1641
5 6 1 0 2 1 0 0 0 0 0 0 0 0 0 0 0 0 0 0 0 0 0 0 57 791 1127 1338 1321 1158 2204 2012 2697 2725 3583 2507 2681 2225 1791 2007 1817 2229 1470 1495 1242 1373 1227 1287 1709
21 17 15 3 2 26 0 3 0 0 0 0 13 21 1 0 0 0 0 0 0 0 2 84 749 833 1583 1443 2310 2183 1921 1619 2440 3307 2503 2255 2005 1791 1528 1758 1604 1712 1400 1794 1543 1312 1637 1789 1399
67 37 26 27 32 4 0 19 2 0 0 0 7 0 0 4 1 0 0 0 0 0 0 147 1150 1775 1699 1551 1576 2217 1478 3336 3618 3331 2280 2029 1654 1564 1384 1352 1673 1395 1674 2098 2218 1955 1579 1376 1112
3 10 34 16 39 14 2 18 0 0 11 3 0 8 0 2 0 0 0 0 0 0 79 182 181 887 1094 1431 2178 2462 2298 3369 3815 2619 1870 1566 1408 1453 1457 1703 1554 1755 1862 2095 1881 1617 1234 1232 1110
161 114 139 119 55 33 34 0 2 0 0 0 0 9 21 14 0 0 0 35 0 7 415 596 724 837 1953 2575 2358 2958 3048 3561 2870 2442 1620 1592 1501 1495 1500 2064 1993 2181 1886 1542 1394 1291 1288 1295 1177
88 102 129 213 51 7 12 16 38 1 1 0 3 60 65 10 0 16 207 270 513 440 1933 2432 2792 2695 2337 2545 2791 2955 3163 3359 2623 2310 1943 2190 2309 2066 1972 2109 1945 1788 1503 1349 1501 1437 1145 1279 1247
296 152 66 123 119 108 77 17 1 204 54 29 31 123 66 48 512 1440 581 532 1731 2320 2668 2897 2560 2583 2469 2421 2612 2986 3044 2841 2923 2631 2373 2446 2307 2130 1908 1767 1581 1422 1418 1426 1322 1246 975 991 991
18 209 173 186 45 2 11 4 6 1 0 0 40 35 204 573 1220 1654 1411 1483 1716 2380 2455 2712 2557 2396 2279 2210 2003 1946 1846 1788 1961 1924 1777 1882 1965 1846 1612 1428 1112 988 954 1156 1175 955 788 764 927
CIN
0 0 0 0 0 0 0 0 0 0 0 -1 0 0 -55 -22 -77 -73 0 -224 -263 -511 -635 -545 -480 -442 -319 -222 -184 -143 -123 -111 -88 -73 -74 -80 -74 -93 -137 -185 -246 0 0 0 0 0 0 0 0
0 0 0 0 0 0 0 0 0 0 -1 -2 0 0 -39 -8 -54 -22 -57 -239 -280 -571 -694 -630 -450 -450 -387 -269 -219 -176 -146 -121 -98 -93 -99 -107 -99 -140 -216 -276 -277 0 0 0 0 0 0 0 0
0 0 0 0 0 0 0 0 0 -1 -9 -1 0 0 -33 -9 -40 -122 -226 -212 -286 -516 -673 -557 -452 -442 -397 -338 -256 -219 -181 -139 -114 -116 -119 -126 -143 -175 -222 -289 -294 -75 0 0 0 0 0 0 0
0 0 0 0 0 0 0 0 0 0 -7 -1 -75 -54 -85 -37 -29 -178 -238 -222 -293 -404 -493 -518 -459 -402 -371 -362 -335 -278 -228 -189 -167 -146 -148 -159 -186 -187 -231 -304 -324 -335 0 0 0 0 0 0 -343
0 0 0 0 0 0 0 0 0 -5 -2 -1 -63 0 -46 -66 -69 -207 -235 -223 -235 -266 -363 -519 -473 -417 -371 -341 -347 -335 -300 -271 -230 -199 -195 -203 -209 -215 -267 -311 -333 -319 -342 -380 -340 -339 -333 -331 -320
0 0 0 0 0 0 0 0 0 -22 -11 -5 -12 -11 -16 -67 -104 -169 -160 -168 -154 -211 -270 -451 -482 -421 -383 -365 -355 -354 -343 -317 -288 -261 -243 -240 -232 -264 -306 -335 -334 -318 -316 -287 -291 -284 -255 -250 -243
0 0 0 0 0 0 0 0 0 0 0 -3 -4 -10 -9 -30 -49 -111 -112 -86 -111 -141 -231 -391 -506 -457 -386 -359 -370 -364 -349 -329 -306 -274 -259 -257 -275 -306 -335 -352 -330 -308 -290 -248 -226 -212 -181 -162 -154
0 0 0 0 0 0 0 0 0 0 0 0 -11 -31 -21 -49 -30 -1 -62 -56 -82 -117 -124 -255 -398 -496 -505 -459 -340 -357 -341 -340 -341 -317 -308 -319 -323 -315 -313 -349 -328 -297 -266 -210 -183 -162 -147 -103 -102
0 0 0 0 0 0 0 0 0 0 0 0 -11 -17 -14 -4 -25 -10 -3 -41 -18 -35 -115 -132 -247 -424 -517 -478 -452 -337 -348 -346 -373 -376 -387 -408 -524 -520 -472 -442 -423 -297 -240 -181 -140 -121 -86 -66 -74
0 0 0 0 0 0 0 0 0 0 0 0 -7 -67 -44 -25 -93 -25 0 -10 -4 -13 -25 -63 -240 -359 -417 -336 -493 -457 -422 -428 -465 -522 -555 -529 -630 -664 -574 -501 -399 -304 -209 -153 -121 -96 -91 -93 -195
0 0 0 0 0 0 0 0 0 0 0 0 0 -12 -49 -17 -10 -43 -3 -1 -11 -8 -16 -27 -185 -314 -331 -294 -359 -426 -516 -550 -567 -596 -642 -600 -611 -655 -560 -621 -564 -352 -251 -277 -197 -170 -164 -222 -214
0 0 0 0 0 -1 0 -1 -1 0 0 0 0 -5 -11 -33 -3 -9 -1 -7 -33 -187 -129 -48 -101 -165 -193 -183 -203 -328 -380 -488 -568 -627 -655 -627 -622 -626 -570 -553 -510 -518 -434 -415 -356 -287 -248 -199 -147
0 0 0 0 0 0 0 0 0 0 0 0 0 -2 -7 -51 -32 -47 -28 -50 -65 -18 -36 -38 -110 -155 -176 -126 -112 -183 -271 -345 -466 -524 -588 -618 -534 -623 -577 -416 -400 -483 -394 -420 -362 -244 -168 -102 -83
0 0 0 0 0 0 0 0 0 0 0 0 0 0 -19 -55 -18 -18 -33 -58 -79 -82 -67 -65 -66 -140 -200 -208 -181 -116 -188 -210 -253 -363 -404 -542 -554 -517 -467 -477 -359 -233 -363 -333 -364 -203 -160 -124 -46
0 0 0 0 0 0 0 0 0 0 0 0 0 0 -20 -10 -13 -5 -74 -109 -105 -135 -115 -118 -93 -90 -170 -221 -200 -157 -136 -178 -148 -190 -224 -386 -427 -434 -473 -350 -345 -348 -196 -258 -324 -239 -68 -30 -48
0 0 0 0 0 0 0 0 0 0 0 -115 -89 -39 -65 -25 -6 -11 -18 -67 -67 -151 -170 -184 -175 -160 -135 -178 -169 -173 -190 -173 -164 -175 -122 -121 -329 -410 -270 -301 -264 -214 -250 -204 -154 -188 -118 -84 -69
0 0 0 0 0 0 0 0 0 0 0 0 -71 -86 -66 -39 -21 -18 -21 -32 -65 -112 -124 -71 -93 -116 -77 -91 -129 -138 -170 -153 -196 -168 -150 -103 -171 -298 -298 -190 -173 -194 -153 -146 -218 -170 -84 -82 -54
0 0 0 0 0 0 0 0 0 0 0 0 0 0 -62 -28 -53 -19 -30 -36 -60 -77 -109 -99 -116 -122 -108 -63 -111 -190 -219 -241 -222 -202 -185 -89 -122 -187 -230 -162 -166 -70 -169 -164 -137 -231 -169 -91 -72
0 0 0 0 0 0 0 0 0 0 0 0 0 0 0 0 0 -59 -37 -40 -67 -128 -153 -169 -164 -200 -179 -146 -167 -213 -238 -306 -234 -175 -147 -78 -72 -127 -157 -188 -74 -151 -96 -152 -133 -129 -116 -102 -60
0 0 0 0 0 0 0 0 0 0 0 0 0 0 0 0 -21 -25 -71 -110 -65 -113 -144 -152 -131 -151 -179 -228 -291 -247 -219 -262 -233 -128 -122 -77 -52 -122 -116 -115 -135 -83 -74 -122 -79 -142 -139 -60 -65
0 0 0 0 0 0 0 0 0 0 0 0 0 -2 0 0 0 -11 -48 -58 -68 -114 -138 -188 -234 -260 -256 -288 -220 -157 -174 -147 -92 -59 -76 -91 -75 -76 -101 -107 -91 -72 -103 -112 -94 -83 -137 -103 -49
0 0 0 0 0 0 0 0 0 0 0 0 0 0 0 0 0 0 0 -24 -91 -131 -149 -100 -160 -244 -238 -161 -150 -151 -231 -211 -130 -49 -80 -111 -102 -80 -104 -101 -103 -48 -120 -80 -89 -104 -91 -67 -19
-1 -1 -1 -1 0 0 0 0 0 0 0 0 0 0 0 0 0 0 0 0 0 0 0 0 -321 -199 -201 -175 -170 -172 -62 -93 -55 -53 -60 -105 -84 -108 -138 -106 -107 -50 -112 -83 -124 -82 -67 -41 -21
-1 -1 -1 0 0 0 0 0 0 0 0 0 0 -4 -1 0 0 0 0 0 0 0 -135 -256 -161 -217 -143 -140 -71 -76 -101 -105 -38 -45 -110 -105 -132 -141 -170 -115 -128 -100 -107 -45 -52 -66 -19 -17 -30
-36 0 0 0 0 0 0 0 0 0 0 0 -2 0 -3 -6 -6 0 0 0 0 0 -162 -195 -80 -77 -113 -130 -131 -85 -145 -34 -30 -41 -100 -121 -142 -147 -166 -153 -96 -104 -41 -15 -19 -19 -16 -23 -26
-118 -45 -5 -1 0 0 -4 -1 0 0 -1 -6 -8 -8 -2 -10 0 0 0 0 0 0 -264 -213 -257 -139 -154 -111 -57 -54 -77 -11 -13 -55 -130 -152 -150 -129 -119 -70 -80 -24 -10 -9 -18 -19 -28 -21 -19
-10 -1 -11 -11 -4 -3 -8 0 -1 0 0 0 -5 -2 -3 -22 0 0 0 -154 0 -13 -139 -147 -122 -140 -28 -6 -50 -15 -9 -10 -25 -30 -132 -90 -100 -98 -83 -8 -8 -5 -8 -14 -23 -24 -20 -23 -14
-1 -3 -2 -4 0 -1 -3 -3 -1 -3 -1 0 -25 -1 -3 -18 0 -113 -105 -87 -44 -58 -28 -21 -12 -10 -10 -6 -8 -6 -5 -14 -25 -24 -33 -6 -8 -12 -8 -3 -6 -9 -12 -19 -13 -11 -16 -14 -23
0 -7 -81 -24 -2 -1 -1 -11 -2 -12 -144 -61 -30 -3 -5 -3 -3 -12 -26 -31 -12 -12 -9 -10 -4 -1 -8 -19 -19 -6 -6 -15 -8 -5 -13 -11 -10 -8 -6 -5 -7 -8 -10 -11 -17 -11 -21 -13 -24
-13 -1 -82 -7 -22 -25 -2 -143 -16 -5 0 0 -35 -45 -2 -2 -15 -24 -5 -13 -6 -1 -2 0 -3 -19 -41 -48 -59 -69 -65 -66 -40 -26 -39 -24 -10 -7 -7 -4 -4 -4 -5 -7 -6 -10 -7 -10 -18
Wind_Speed
10 11 10 9 7 8 16 20 21 23 16 10 10 4 5 14 16 10 13 18 25 20 19 19 19 17 15 14 13 12 11 11 12 11 12 11 11 10 10 9 8 7 7 7 6 5 5 5 5
8 12 8 7 8 13 14 19 24 22 10 8 4 1 7 8 22 14 13 18 22 18 17 17 19 18 16 15 14 13 12 12 12 12 12 11 11 11 10 9 8 7 7 6 6 6 4 4 4
10 15 5 6 11 17 17 20 17 13 6 5 7 8 7 6 15 13 13 20 22 16 16 16 20 18 17 15 14 13 13 12 11 12 11 11 10 11 11 10 9 9 8 7 6 5 5 4 3
8 7 7 10 17 21 27 24 29 12 14 8 10 8 4 11 15 12 19 21 18 16 16 20 19 17 16 16 15 14 14 13 12 12 12 11 11 10 11 10 9 9 9 8 8 7 5 5 4
9 6 11 15 20 21 22 22 23 11 6 12 15 13 11 6 17 19 17 18 17 17 15 18 21 18 18 17 15 15 14 14 13 13 12 11 11 11 11 11 10 9 9 9 9 8 7 6 5
9 10 13 13 20 22 21 23 19 7 11 10 14 13 12 12 23 17 17 17 17 17 16 15 20 18 17 17 16 16 14 14 13 12 13 12 12 12 12 12 11 10 10 10 10 9 8 7 6
15 13 18 21 20 19 21 20 20 9 13 19 15 18 15 19 20 19 16 17 16 17 16 14 15 16 16 15 15 15 15 14 13 12 12 12 13 13 13 12 12 11 11 11 9 9 9 9 8
13 13 23 20 18 23 21 16 21 15 15 18 18 2 11 10 14 19 18 18 19 18 18 15 13 13 13 12 13 14 14 14 14 14 14 13 13 13 13 12 12 13 13 12 11 11 12 11 9
21 16 18 24 22 21 18 19 15 16 15 20 14 6 10 11 14 17 18 18 17 18 17 18 16 14 13 13 13 13 15 15 15 15 16 13 9 10 12 12 14 15 14 13 13 14 11 10 11
20 18 28 23 19 20 19 19 20 17 19 18 10 8 6 10 12 17 17 14 14 17 19 18 17 16 14 11 13 14 12 10 10 11 11 9 9 8 12 13 16 18 16 15 15 13 11 12 8
22 27 25 26 24 21 20 23 17 15 19 21 17 14 8 18 19 20 13 13 12 15 7 17 18 17 16 12 9 8 8 8 9 13 10 10 8 7 8 7 9 8 15 8 10 9 8 11 8
27 30 28 29 28 26 25 23 25 19 22 24 18 16 17 12 12 15 14 10 1 13 4 12 15 13 14 10 9 10 9 10 9 11 13 9 8 8 8 8 9 9 8 10 8 7 9 10 9
31 29 29 27 25 25 27 29 28 19 22 23 22 17 16 15 12 9 7 3 2 3 3 4 14 12 8 6 4 8 10 10 11 10 13 11 10 10 9 8 8 10 9 10 9 9 8 9 8
24 28 29 29 26 22 27 28 25 25 20 23 23 20 8 7 12 9 6 5 5 4 2 3 2 11 12 9 7 4 5 7 9 10 11 16 11 10 10 10 9 7 10 10 10 8 9 9 10
22 27 25 28 26 28 23 26 32 24 21 22 23 23 20 16 25 21 8 9 5 4 4 5 4 10 10 11 9 7 5 7 5 9 12 17 15 12 13 9 10 10 9 9 11 10 6 8 7
23 20 22 27 27 29 21 30 28 26 22 23 24 22 22 20 20 14 13 12 9 8 9 9 7 8 12 10 7 7 8 6 8 9 7 13 17 15 10 10 9 8 8 9 5 9 6 6 5
18 21 24 25 25 26 27 32 27 25 23 20 21 21 22 21 19 18 17 14 12 12 11 8 6 4 8 6 7 8 8 7 7 6 8 9 15 17 13 10 8 10 7 6 8 5 4 4 5
17 22 23 27 26 26 27 30 27 25 23 25 22 22 22 22 25 17 13 15 11 8 8 7 5 4 3 5 7 6 6 7 8 8 6 8 11 16 13 9 9 6 9 7 5 7 5 5 5
19 22 27 28 27 25 24 26 28 25 25 24 20 19 24 24 22 19 14 17 8 9 9 9 7 7 4 4 4 5 7 7 7 7 8 6 9 11 13 10 6 10 7 9 7 5 7 5 3
20 21 24 25 25 23 27 28 28 22 23 22 22 23 21 22 22 19 21 15 7 8 9 9 9 10 8 7 6 5 6 8 8 7 7 7 8 11 10 10 10 9 7 8 6 8 5 4 4
18 21 21 24 22 24 25 26 28 26 20 17 20 19 23 22 21 16 12 9 8 9 9 10 10 10 10 12 7 6 6 4 5 5 6 6 7 9 9 10 8 7 9 7 7 6 7 5 4
21 21 21 21 20 17 21 18 22 21 24 21 22 20 14 13 15 17 16 14 8 6 5 7 10 13 13 12 9 9 9 7 6 4 6 6 7 7 9 9 10 6 9 6 8 6 5 4 5
23 21 20 22 21 22 22 17 18 23 23 22 21 21 17 16 17 18 16 14 12 12 12 12 13 13 14 13 13 10 8 6 4 4 9 8 6 7 6 8 10 5 7 7 9 9 9 7 4
28 20 22 18 17 18 23 20 21 19 23 24 18 21 23 25 25 22 19 17 17 15 14 12 13 13 12 11 12 9 8 8 5 7 7 6 6 5 7 7 6 6 6 7 8 8 9 5 4
28 17 13 16 14 17 22 22 18 21 24 24 22 18 20 16 15 18 21 19 18 15 13 8 8 9 10 12 10 12 11 9 7 9 8 9 6 5 7 6 6 5 7 7 6 6 5 5 5
26 10 10 19 17 17 21 15 17 19 22 25 23 24 16 14 15 9 6 6 9 11 10 8 7 8 8 9 12 9 12 6 5 9 8 7 6 7 8 8 8 9 7 5 6 5 5 6 4
20 11 20 12 19 15 20 27 21 22 23 26 24 23 12 13 10 8 12 10 12 11 10 9 9 11 10 10 8 9 9 7 10 10 10 8 9 8 9 11 10 8 8 8 7 4 5 6 5
15 9 13 5 12 17 17 22 12 20 19 24 24 19 18 6 9 13 12 12 9 5 8 6 6 8 7 8 9 9 9 9 11 11 12 12 9 11 11 9 8 7 7 8 6 5 4 6 4
11 3 3 12 7 5 9 13 12 17 22 22 22 15 7 11 10 14 16 12 11 8 10 9 9 11 11 9 8 10 9 12 12 10 8 10 10 10 10 8 8 7 7 6 5 2 7 6 6
17 14 12 7 10 9 13 22 15 24 29 30 25 7 6 8 4 7 8 9 11 13 13 12 12 12 11 11 11 10 11 11 12 10 8 9 10 10 10 8 6 6 6 5 5 5 5 6 6
Wind_Direction
250 248 258 262 244 230 245 236 256 264 256 181 25 41 262 327 48 93 132 113 115 129 143 152 151 154 152 156 152 150 148 147 145 143 141 140 143 144 137 138 143 145 144 141 144 137 129 119 106
230 245 250 283 237 245 240 233 239 245 253 107 105 274 284 85 114 131 109 116 117 135 143 150 155 157 156 158 155 154 151 152 152 150 149 150 154 152 150 152 157 156 158 161 158 147 135 120 102
259 258 242 230 232 251 262 225 225 234 64 116 169 223 217 102 126 118 108 114 122 138 146 150 159 159 160 159 157 157 153 155 159 159 162 163 166 163 161 162 168 169 168 168 167 161 155 142 135
243 208 248 255 258 252 253 283 290 167 141 169 227 191 262 41 119 131 128 124 126 142 148 145 154 157 163 166 164 159 162 165 167 170 170 171 172 170 164 168 170 182 173 178 177 175 168 170 161
242 260 244 246 245 254 274 271 275 292 140 197 211 191 212 98 111 134 139 138 144 145 151 150 156 163 166 168 168 168 170 171 176 174 176 176 175 175 172 174 174 188 181 186 187 182 185 194 194
235 231 247 245 256 266 262 266 280 265 267 238 213 223 187 147 129 146 152 150 148 144 143 152 158 165 168 168 172 175 174 180 182 182 183 182 180 182 181 180 181 191 193 197 194 192 196 202 211
244 252 247 253 255 250 258 285 287 248 253 265 213 212 227 155 149 156 157 156 153 144 132 150 166 168 171 177 176 175 181 182 184 188 187 190 186 189 187 186 187 194 200 203 202 200 210 213 211
240 249 263 264 264 266 273 250 251 247 263 275 271 322 328 149 176 164 170 169 158 150 147 150 164 175 182 185 184 183 187 186 187 189 192 193 195 195 196 187 193 200 204 203 201 207 216 219 225
244 241 246 248 254 263 275 281 286 279 278 243 262 95 163 172 165 180 181 172 164 157 160 153 161 171 183 189 187 189 194 196 193 197 196 192 198 196 206 201 199 202 205 204 207 213 217 225 230
238 244 239 244 250 273 280 271 277 256 255 258 227 93 68 106 103 259 185 186 172 162 160 154 154 165 177 197 181 186 196 202 203 205 197 201 205 202 203 200 211 199 200 205 214 217 209 224 232
228 247 248 251 250 248 266 284 288 278 270 254 238 176 198 180 202 204 226 190 198 187 170 150 155 161 171 199 169 179 191 196 204 207 199 196 205 214 202 202 195 194 200 202 213 210 218 222 226
240 242 246 256 266 282 285 279 262 244 257 267 264 242 184 208 226 215 225 208 324 79 126 163 159 158 178 179 167 177 186 191 200 203 197 196 198 206 214 205 188 192 192 205 211 207 213 231 221
251 247 246 247 252 267 276 272 273 242 256 274 277 267 225 192 214 232 239 283 10 162 269 89 155 160 169 184 196 181 191 192 196 197 198 196 200 206 203 211 209 188 195 192 211 201 207 217 236
259 261 260 257 253 240 251 264 263 261 249 264 275 266 221 245 277 249 261 255 230 227 233 342 49 165 163 178 204 208 211 189 191 197 196 200 203 196 208 210 201 197 191 192 201 206 213 198 212
276 274 271 264 260 253 253 247 251 256 253 253 261 270 272 216 203 215 239 271 256 276 276 199 198 148 170 182 187 212 223 215 222 198 195 189 199 207 201 203 218 207 187 202 186 218 209 201 197
278 281 258 246 253 255 262 252 244 253 240 248 259 264 266 260 249 226 213 214 191 205 216 212 198 176 180 185 192 199 218 230 214 221 209 187 193 196 201 207 201 217 215 192 194 193 213 206 223
247 257 258 265 246 246 241 259 247 243 246 230 245 257 264 262 251 235 224 222 209 204 203 165 167 193 159 178 196 206 216 221 233 228 212 198 184 194 198 206 204 191 207 211 198 187 182 216 213
264 245 246 251 258 265 236 240 251 250 244 239 236 248 261 256 252 252 231 236 233 154 140 158 163 179 208 191 206 213 213 226 229 230 235 194 188 184 195 202 199 189 203 205 194 183 202 213 195
269 265 272 279 289 291 255 254 244 238 248 234 237 232 244 253 260 266 242 248 194 157 158 173 177 200 202 232 218 228 225 228 233 213 213 216 176 181 182 200 210 201 208 203 189 176 200 206 193
275 286 282 287 289 285 280 281 282 245 240 241 231 229 238 249 244 240 244 248 180 175 180 177 181 183 203 215 229 240 222 225 218 197 189 189 164 175 179 185 203 199 212 193 200 186 180 194 166
264 261 278 285 291 287 285 274 268 273 272 254 267 243 224 235 253 258 257 247 210 202 195 190 190 197 209 219 230 219 231 251 265 185 167 168 164 167 181 181 200 203 204 199 197 184 175 185 215
279 281 274 282 287 274 268 273 261 263 257 260 267 255 258 251 247 255 255 251 239 233 234 205 191 203 212 208 223 228 218 218 220 208 158 154 160 173 171 174 200 229 191 210 184 167 180 196 191
280 285 279 281 281 275 263 258 265 266 256 244 239 249 248 261 260 244 249 248 249 250 241 230 223 211 206 195 208 217 220 209 219 208 138 140 148 151 174 184 200 207 185 203 171 164 191 206 162
291 278 275 271 275 260 262 255 258 256 258 267 258 234 227 227 234 238 240 244 245 242 223 220 213 208 192 191 196 212 218 215 210 135 136 149 155 159 170 178 180 163 192 161 171 185 197 166 198
304 260 262 257 248 253 255 256 259 256 268 267 265 273 277 262 233 217 221 228 227 227 223 208 179 181 181 188 195 199 219 215 228 153 147 143 147 158 161 176 171 180 204 193 174 148 161 180 212
282 282 295 276 273 287 296 286 283 282 271 269 273 254 283 288 226 240 232 244 236 211 195 183 185 178 178 191 203 195 202 191 158 127 130 140 151 167 176 190 180 187 181 165 146 156 178 189 187
271 265 231 314 282 272 280 277 258 275 264 269 258 256 263 264 268 248 237 235 214 232 164 176 196 179 192 180 168 183 190 182 138 126 142 158 171 174 175 187 181 166 169 173 144 186 185 145 160
262 306 310 259 265 266 254 271 271 266 241 256 250 238 234 236 263 249 241 230 215 184 125 138 181 139 150 160 163 171 165 135 140 148 166 170 168 167 171 163 156 172 163 136 157 147 186 158 150
255 220 307 314 201 258 289 273 217 354 340 303 251 239 165 239 258 305 216 214 127 133 126 117 134 146 151 156 145 142 130 124 132 137 138 134 153 141 149 150 155 159 134 132 150 276 177 166 146
255 233 191 222 249 247 278 275 307 9 345 337 286 237 279 199 146 281 119 148 164 146 144 150 153 119 108 110 109 112 115 107 114 123 129 128 140 153 155 150 142 145 150 152 170 197 190 165 179